STARLINK-1292, 45394

Orbit data source: Space-Track

STARLINK-1292, 45394 is a payload satellite owned by SpaceX/Seattle (US) in LEO that was launched on Wed, 18 Mar 2020 UTC via an FALCON 9 launch vehicle from the Air Force Eastern Test Range (AFETR). Payload-class satellites include a variety of spacecraft equipped with specific instruments for various scientific and technological missions. These include communications satellites like Starlink; space stations such as the ISS; scientific satellites like the Hubble; Earth observation satellites from companies like Planet Labs, Umbra, and HawkEye 360; GPS; miniature CubeSats for education and research; and military/defense satellites.

Loading next visibility...
Identifier
45394, 2020-019AL
Orbit
LEO
Last TLE update
4 hours ago
Origin
Manufacturer
SpaceX/Seattle
Mission
Operational Commercial Communications
Bus & Motor
STARLINK, Unknown motor
Mass
260 kg wet, ~248 kg dry
Launch date (UTC)
2020-03-18 (5 years ago)
Launch vehicle
FALCON 9
Launch site
Air Force Eastern Test Range (AFETR)
Object type
Payload
Rocket body
Debris
Shape & HBR
Box + 1 Pan, 8.86 m
Radar Cross Section
13.562 m², Large (>1 m²)

Expand to show TLE details & history

TLE from 4 hours ago
0 STARLINK-1292
1 45394U 20019AL  25186.58335648  .01796380  00000-0  76252-1 0  9998
2 45394  53.0547 175.5124 0001414  45.4934 339.5743 15.19427029292507
Epoch: 2025-07-05T14:00Z
TLE epoch observation values (Epoch: 2025-07-05T14:00:01.999Z)
Latitude
19.82963°
Longitude
57.33135°
Altitude
507.1 km
Speed
7.614 km/s
True Right ascension
12h 44m 38s
True Declination
19° 42' 58"
Sunlit
Object was in daylight at epoch
Visualization orbit readout
Latitude
48.70499°
Longitude
162.63686°
Altitude
511.321 km
Speed
7.614 km/s
Apparent Right ascension
18h 33m 56s
Apparent Declination
6° 50' 18"
Sunlit
Object is in daylight
Visualization observer readout
Local Sidereal Time
05:27:14
Azimuth
337.899° N
Elevation
-40.775°
Doppler factor
1
Orbital elements
Apogee altitude
508.817 km
Perigee altitude
506.87 km
Semi-major axis
6,885.98 km
Eccentricity
0.00014
Inclination
53.0547°
RAAN
175.5124°
Arg. of periapsis
45.4934°
True anomaly
Unknown
Mean anomaly
339.5743°
Eccentric anomaly
Unknown
Mean motion
3.79835 °/min
Orbital period
94.78 mins
BSTAR
0.076252
Loading maneuver chart data...
Loading SW <> Apogee altitude chart data...
Loading historical data...
Loading historical data...
Loading historical data...
Loading historical data...
Loading historical data...
Loading historical data...
Loading historical data...

STARLINK-1292 Visibility forecast

Observer location: undefined°, undefined°

Span
Click to sort rows by Start time (UTC) header in descending order
Start Az.
Max El. time (UTC)
Max El. Az.
Max El.
End time (UTC)
End Az.
5 mins2025-07-06 01:05:51.457Z170.82° S2025-07-06 01:07:51.457Z130.301° SE21.087°2025-07-06 01:10:51.457Z77.452° E
6 mins2025-07-06 02:43:51.457Z259.934° W2025-07-06 02:45:51.457Z308.135° NW34.904°2025-07-06 02:49:51.457Z40.239° NE
5 mins2025-07-06 07:42:51.457Z342.174° N2025-07-06 07:44:51.457Z27.861° NE24.471°2025-07-06 07:47:51.457Z85.103° E
6 mins2025-07-06 09:20:51.457Z293.573° NW2025-07-06 09:23:51.457Z203.578° SW35.274°2025-07-06 09:26:51.457Z152.035° SSE
|